Regional Weather Roundup
Issued by NWS

Home | Current Version | Previous Version | Graphics & Text | Print | Product List | Glossary On
Versions: 1 2 3 4 5 6 7 8 9 10 11 12 13 14 15 16 17 18 19 20 21 22 23 24 25 26 27 28 29 30 31 32 33 34 35 36 37 38 39 40 41 42 43 44 45 46 47 48 49 50
000
ASUS43 KOAX 261602
RWRNE

WEATHER ROUNDUP FOR NEBRASKA
NATIONAL WEATHER SERVICE OMAHA NE
1000 AM CST THU FEB 26 2015

NOTES: SATELLITE DATA IS BEING USED TO AUGMENT CLOUD COVER ABOVE
       12000 FEET.
       "FAIR" INDICATES FEW OR NO CLOUDS BELOW 12,000 FEET WITH NO
       SIGNIFICANT WEATHER AND/OR OBSTRUCTIONS TO VISIBILITY.

  * THESE STATIONS DO NOT REPORT WEATHER SUCH AS RAIN...SNOW OR FOG.

NEZ001>004-019>022-054>056-261700-
NEBRASKA PANHANDLE

CITY           SKY/WX    TMP DP  RH WIND       PRES   REMARKS
SCOTTSBLUFF    CLOUDY    12   3  67 NE6       30.31R WCI   3
ALLIANCE       CLOUDY     9   1  70 NE10      30.31R WCI  -5
CHADRON        CLOUDY     7  -1  70 NE10      30.40R HAZE    WCI  -8
KIMBALL        CLOUDY     9   4  78 NE6       30.21S HAZE    WCI   0
SIDNEY         LGT SNOW  11   6  81 NE3       30.28R
$$

NEZ057>060-069>072-079>082-261700-
SOUTHWEST NEBRASKA

CITY           SKY/WX    TMP DP  RH WIND       PRES   REMARKS
NORTH PLATTE   SUNNY     10  -1  61 N15G22    30.40S WCI  -7
IMPERIAL       CLOUDY    14   0  53 N13G22    30.36R WCI   0
LEXINGTON      SUNNY     12   1  60 N18       30.43R WCI  -6
MCCOOK         SUNNY     16  -1  47 N22       30.41R WCI  -2
OGALLALA       CLOUDY    13   4  66 NE8       30.36S WCI   2
$$

NEZ005>010-023>029-035>040-094-261700-
NORTH CENTRAL NEBRASKA

CITY           SKY/WX    TMP DP  RH WIND       PRES   REMARKS
VALENTINE      MIX PCPN   3  -5  69 N14       30.44R WCI -15
AINSWORTH      MOSUNNY    4  -3  71 N18       30.43S WCI -16
BROKEN BOW     SUNNY      8  -2  63 N22       30.42S WCI -12
O`NEILL        MOSUNNY    3  -3  74 N14       30.47S WCI -15
ORD            MOSUNNY    5  -6  60 N15       30.46S WCI -13
$$

NEZ041-046>049-061>064-073>077-083>087-261700-
SOUTH CENTRAL NEBRASKA

CITY           SKY/WX    TMP DP  RH WIND       PRES   REMARKS
GRAND ISLAND   SUNNY      6  -5  60 N20       30.48S WCI -14
AURORA         SUNNY      7  -4  61 N20G25    30.47S WCI -13
HASTINGS       SUNNY      7  -6  55 N22G29    30.45R WCI -14
HEBRON         MOSUNNY    8  -4  56 N15G22    30.49S WCI  -9
HOLDREGE       MOSUNNY   11  -1  58 N22G30    30.42R WCI  -9
KEARNEY *      MOSUNNY    9  -2  61 N16       30.44S WCI  -9
YORK           MOSUNNY    7   0  72 N21G32    30.47S WCI -13
$$

NEZ011>018-030>034-042>045-261700-
NORTHEAST NEBRASKA

CITY           SKY/WX    TMP DP  RH WIND       PRES   REMARKS
NORFOLK        SUNNY      3  -6  66 N18       30.49R WCI -17
ALBION         MOSUNNY    3  -5  69 N13       30.48S WCI -14
BLAIR          SUNNY      4  -5  66 N15       30.47R WCI -15
COLUMBUS *     SUNNY      3  -9  55 N17       30.50S WCI -17
FREMONT        SUNNY      5  -4  67 N12G20    30.51R WCI -11
TEKAMAH        SUNNY      5  -5  63 N18       30.52S WCI -15
WAYNE          SUNNY      2  -6  69 N14G22    30.51R WCI -16
$$

NEZ050>053-065>068-078-088>093-261700-
SOUTHEAST NEBRASKA

CITY           SKY/WX    TMP DP  RH WIND       PRES   REMARKS
LINCOLN        SUNNY      7  -3  64 N20       30.51S WCI -13
OMAHA EPPLEY   MOSUNNY    4  -3  73 N20       30.51R WCI -17
BEATRICE       PTSUNNY    7  -2  67 N20       30.49R WCI -13
FALLS CITY     MOSUNNY   10  -2  58 N13       30.48R WCI  -5
NEBRASKA CITY  MOSUNNY    6  -3  65 N14G20    30.48R WCI -11
PLATTSMOUTH    MOSUNNY    4  -4  68 NW14      30.48S WCI -13
$$

NEZ044-045-051>053-067-261700-
OMAHA AREA

CITY           SKY/WX    TMP DP  RH WIND       PRES   REMARKS
OMAHA EPPLEY   MOSUNNY    4  -3  73 N20       30.51R WCI -17
BLAIR          SUNNY      4  -5  66 N15       30.47R WCI -15
FREMONT        SUNNY      5  -4  67 N12G20    30.51R WCI -11
MILLARD        SUNNY      5  -4  67 N12       30.51S WCI -11
OFFUTT AFB     SUNNY      5  -4  66 NW12      30.50R WCI -11
PLATTSMOUTH    MOSUNNY    4  -4  68 NW14      30.48S WCI -13
WAHOO          FAIR       5  -4  66 MISG      30.50S
$$


USA.gov is the U.S. government's official web portal to all federal, state and local government web resources and services.